Glidden, IA

9:44 AM CST on February 24, 2017 (GMT -0600)
Neu

Weather History for KCIN - May, 2014

Change the Weather History Date:

Thursday, May 1, 2014

  Actual Average Record
Temperature  
Mean Temperature 42 °F -  
Max Temperature 46 °F 67 °F 89 °F (1959)
Min Temperature 39 °F 39 °F 22 °F (1966)
Degree Days  
Heating Degree Days 22    
Moisture  
Dew Point 39 °F    
Average Humidity 85    
Maximum Humidity 93    
Minimum Humidity 76    
Precipitation  
Precipitation 0.00 in - - ()
Sea Level Pressure  
Sea Level Pressure 29.88 in    
Wind  
Wind Speed 16 mph (NW)    
Max Wind Speed 24 mph    
Max Gust Speed 30 mph    
Visibility 10 miles    
Events      
Averages and records for this station are not official NWS values.
T = Trace of Precipitation, MM = Missing Value Source: NWS Daily Summary

Daily Weather History Graph

Daily Weather History Graph

Search for Another Location

Airport or City:

Trip Planner

Search our weather history database for the weather conditions in past years. The results will help you decide how hot, cold, wet, or windy it might be!

Date:

Astronomy

May. 01, 2014 Rise Set
Actual Time 6:15 AM CDT 8:18 PM CDT
Civil Twilight 5:44 AM CDT 8:48 PM CDT
Nautical Twilight 5:07 AM CDT 9:26 PM CDT
Astronomical Twilight 4:26 AM CDT 10:07 PM CDT
Moon 8:02 AM CDT (5/1) 10:53 PM CDT (5/1)
Length of Visible Light 15h 04m
Length of Day
14h 03m
Waxing Crescent, 7% of the Moon is Illuminated
May 1
Waxing Crescent
May 6
First Quarter
May 14
Full
May 21
Last Quarter
May 28
New

Hourly Weather History & Observations

Time (CDT) Temp. Windchill Dew Point Humidity Pressure Visibility Wind Dir Wind Speed Gust Speed Precip Events Conditions
12:15 AM 41.0 °F 33.1 °F 37.4 °F 87% 29.85 in 10.0 mi NW 15.0 mph - N/A   Overcast
12:35 AM 41.0 °F 33.1 °F 37.4 °F 87% 29.85 in 10.0 mi WNW 15.0 mph 20.7 mph N/A   Overcast
12:55 AM 41.0 °F 32.8 °F 37.4 °F 87% 29.85 in 10.0 mi NW 16.1 mph - N/A   Overcast
1:15 AM 41.0 °F 32.2 °F 37.4 °F 87% 29.84 in 10.0 mi WNW 18.4 mph - N/A   Overcast
1:35 AM 41.0 °F 32.5 °F 37.4 °F 87% 29.84 in 10.0 mi WNW 17.3 mph - N/A   Overcast
1:55 AM 41.0 °F 32.8 °F 37.4 °F 87% 29.84 in 10.0 mi WNW 16.1 mph - N/A   Overcast
2:15 AM 41.0 °F 32.2 °F 37.4 °F 87% 29.83 in 10.0 mi NW 18.4 mph 25.3 mph N/A   Overcast
2:35 AM 41.0 °F 32.8 °F 37.4 °F 87% 29.82 in 10.0 mi WNW 16.1 mph - N/A   Overcast
2:55 AM 41.0 °F 32.5 °F 37.4 °F 87% 29.82 in 10.0 mi NW 17.3 mph - N/A   Overcast
3:15 AM 41.0 °F 32.8 °F 37.4 °F 87% 29.82 in 10.0 mi NW 16.1 mph 24.2 mph N/A   Overcast
3:35 AM 39.2 °F 30.2 °F 37.4 °F 93% 29.82 in 10.0 mi NW 17.3 mph - N/A   Overcast
3:55 AM 41.0 °F 33.1 °F 37.4 °F 87% 29.82 in 10.0 mi NW 15.0 mph - N/A   Overcast
4:15 AM 41.0 °F 32.8 °F 37.4 °F 87% 29.81 in 10.0 mi NW 16.1 mph 23.0 mph N/A   Overcast
4:35 AM 41.0 °F 32.5 °F 37.4 °F 87% 29.82 in 10.0 mi NW 17.3 mph - N/A   Overcast
5:15 AM 39.2 °F 30.8 °F 37.4 °F 93% 29.81 in 10.0 mi NW 15.0 mph - N/A   Overcast
5:35 AM 41.0 °F 33.1 °F 37.4 °F 87% 29.81 in 10.0 mi WNW 15.0 mph - N/A   Overcast
5:55 AM 41.0 °F 32.5 °F 37.4 °F 87% 29.82 in 10.0 mi NW 17.3 mph 23.0 mph N/A   Overcast
6:15 AM 41.0 °F 32.8 °F 37.4 °F 87% 29.82 in 10.0 mi NW 16.1 mph - N/A   Overcast
6:35 AM 41.0 °F 32.8 °F 37.4 °F 87% 29.82 in 10.0 mi WNW 16.1 mph 23.0 mph N/A   Overcast
6:55 AM 41.0 °F 32.5 °F 37.4 °F 87% 29.82 in 10.0 mi NW 17.3 mph - N/A   Overcast
7:15 AM 41.0 °F 32.8 °F 37.4 °F 87% 29.83 in 10.0 mi NW 16.1 mph 25.3 mph N/A   Overcast
7:35 AM 41.0 °F 32.8 °F 37.4 °F 87% 29.83 in 10.0 mi NW 16.1 mph 24.2 mph N/A   Overcast
7:55 AM 41.0 °F 32.8 °F 37.4 °F 87% 29.83 in 10.0 mi NW 16.1 mph 24.2 mph N/A   Overcast
8:15 AM 41.0 °F 31.9 °F 37.4 °F 87% 29.84 in 10.0 mi NW 19.6 mph - N/A   Overcast
8:35 AM 41.0 °F 31.9 °F 37.4 °F 87% 29.84 in 10.0 mi NW 19.6 mph 26.5 mph N/A   Overcast
8:55 AM 41.0 °F 31.6 °F 37.4 °F 87% 29.84 in 10.0 mi NW 20.7 mph 27.6 mph N/A   Mostly Cloudy
9:15 AM 42.8 °F 33.5 °F 37.4 °F 81% 29.85 in 10.0 mi NW 23.0 mph - N/A   Mostly Cloudy
9:55 AM 42.8 °F 34.0 °F 39.2 °F 87% 29.85 in 10.0 mi NW 20.7 mph 27.6 mph N/A   Overcast
10:15 AM 42.8 °F 34.5 °F 39.2 °F 87% 29.85 in 10.0 mi NW 18.4 mph 25.3 mph N/A   Overcast
10:35 AM 42.8 °F 34.3 °F 37.4 °F 81% 29.86 in 10.0 mi NW 19.6 mph 29.9 mph N/A   Overcast
10:55 AM 42.8 °F 34.8 °F 39.2 °F 87% 29.87 in 10.0 mi NW 17.3 mph 28.8 mph N/A   Overcast
11:15 AM 42.8 °F 33.8 °F 39.2 °F 87% 29.87 in 10.0 mi NW 21.9 mph 27.6 mph N/A   Overcast
11:35 AM 44.6 °F 36.1 °F 39.2 °F 81% 29.87 in 10.0 mi NW 21.9 mph 27.6 mph N/A   Overcast
11:55 AM 42.8 °F 34.0 °F 37.4 °F 81% 29.88 in 10.0 mi NW 20.7 mph 27.6 mph N/A   Overcast
12:15 PM 42.8 °F 34.0 °F 39.2 °F 87% 29.88 in 10.0 mi NW 20.7 mph 27.6 mph N/A   Overcast
12:35 PM 42.8 °F 33.5 °F 39.2 °F 87% 29.88 in 10.0 mi NNW 23.0 mph - N/A   Overcast
12:55 PM 44.6 °F 36.6 °F 39.2 °F 81% 29.88 in 10.0 mi NW 19.6 mph 28.8 mph N/A   Overcast
1:15 PM 44.6 °F 35.7 °F 39.2 °F 81% 29.89 in 10.0 mi NW 24.2 mph - N/A   Overcast
1:35 PM 44.6 °F 35.7 °F 37.4 °F 76% 29.89 in 10.0 mi NW 24.2 mph - N/A   Overcast
2:15 PM 44.6 °F 35.9 °F 39.2 °F 81% 29.90 in 10.0 mi NW 23.0 mph 28.8 mph N/A   Overcast
2:35 PM 42.8 °F 34.0 °F 39.2 °F 87% 29.91 in 10.0 mi NW 20.7 mph 26.5 mph N/A   Overcast
2:55 PM 44.6 °F 36.1 °F 39.2 °F 81% 29.91 in 10.0 mi NW 21.9 mph - N/A   Overcast
3:15 PM 44.6 °F 36.9 °F 39.2 °F 81% 29.91 in 10.0 mi NW 18.4 mph 25.3 mph N/A   Overcast
3:35 PM 44.6 °F 36.1 °F 39.2 °F 81% 29.91 in 10.0 mi NNW 21.9 mph 28.8 mph N/A   Overcast
4:15 PM 44.6 °F 35.9 °F 39.2 °F 81% 29.91 in 10.0 mi NNW 23.0 mph - N/A   Overcast
4:55 PM 46.4 °F 39.8 °F 39.2 °F 76% 29.91 in 10.0 mi NNW 16.1 mph 23.0 mph N/A   Overcast
5:15 PM 46.4 °F 39.0 °F 39.2 °F 76% 29.91 in 10.0 mi NNW 19.6 mph - N/A   Overcast
5:35 PM 46.4 °F 39.2 °F 39.2 °F 76% 29.91 in 10.0 mi NW 18.4 mph - N/A   Overcast
5:55 PM 46.4 °F 39.5 °F 41.0 °F 81% 29.91 in 10.0 mi NW 17.3 mph 23.0 mph N/A   Overcast
6:15 PM 46.4 °F 40.4 °F 39.2 °F 76% 29.91 in 10.0 mi NNW 13.8 mph - N/A   Overcast
6:35 PM 46.4 °F 40.7 °F 41.0 °F 81% 29.91 in - NNW 12.7 mph - N/A   Overcast
6:55 PM 46.4 °F 41.5 °F 41.0 °F 81% 29.91 in 10.0 mi NW 10.4 mph - N/A   Overcast
7:15 PM 46.4 °F 41.9 °F 41.0 °F 81% 29.92 in 10.0 mi NW 9.2 mph - N/A   Overcast
7:35 PM 46.4 °F 42.4 °F 41.0 °F 81% 29.92 in 10.0 mi NW 8.1 mph - N/A   Overcast
7:55 PM 46.4 °F 41.5 °F 41.0 °F 81% 29.92 in 10.0 mi NW 10.4 mph - N/A   Overcast
8:15 PM 46.4 °F 41.9 °F 41.0 °F 81% 29.93 in 10.0 mi NW 9.2 mph - N/A   Overcast
8:35 PM 46.4 °F 42.4 °F 41.0 °F 81% 29.93 in 10.0 mi NNW 8.1 mph - N/A   Overcast
8:55 PM 44.6 °F 40.2 °F 41.0 °F 87% 29.93 in 10.0 mi NW 8.1 mph - N/A   Overcast
9:15 PM 44.6 °F 41.4 °F 41.0 °F 87% 29.93 in 10.0 mi NW 5.8 mph - N/A   Overcast
9:35 PM 44.6 °F 42.2 °F 41.0 °F 87% 29.94 in 10.0 mi NW 4.6 mph - N/A   Overcast
9:55 PM 44.6 °F 41.4 °F 41.0 °F 87% 29.94 in 10.0 mi WNW 5.8 mph - N/A   Overcast
10:15 PM 44.6 °F 41.4 °F 41.0 °F 87% 29.94 in 10.0 mi WNW 5.8 mph - N/A   Mostly Cloudy
10:35 PM 44.6 °F 41.4 °F 41.0 °F 87% 29.94 in 10.0 mi West 5.8 mph - N/A   Overcast
10:55 PM 44.6 °F 40.7 °F 41.0 °F 87% 29.94 in 10.0 mi West 6.9 mph - N/A   Overcast
11:15 PM 44.6 °F 40.7 °F 41.0 °F 87% 29.94 in 10.0 mi West 6.9 mph - N/A   Overcast
11:35 PM 44.6 °F 40.7 °F 41.0 °F 87% 29.94 in 10.0 mi West 6.9 mph - N/A   Overcast
11:55 PM 42.8 °F 38.6 °F 41.0 °F 93% 29.93 in 10.0 mi West 6.9 mph - N/A   Overcast